STARLINK-32462 (62129 NORAD) Tracking and Keplerian Element Data

This shows tracking and keplerian element data for the satellite.

Feedback or suggestion? Click here.




ElementValue
Catalog62129
NameSTARLINK-32462
Epoch Orbit1174
Epoch Day34.94721861
Epoch Year2025
RAAN230.053
Inclination43.0003
Eccentricity0.0002215
Argument of Perigee257.609
Mean Anonmoly102.4518
Mean Motion15.40697956
Decay Rate3.418E-05
L11 62129U 24222R 25034.94721861 .00003418 00000+0 89054-4 0 9999
L22 62129 43.0003 230.0530 0002215 257.6090 102.4518 15.40697956 11740



Live tracking and technical data element details for STARLINK-32462 (NORAD 62129). STARLINK-32462 can be tracked NOW for your location showing map with azimuth and elevation plus other details from your city location.







IsCatalogInMostPopularTable: catalog: 62129, numindb: 34
Update: records affected: 1



GetName: 62129 STARLINK-32462

Hit Count: updated at: Sun, 18 May 2025 22:32:29 GMT